| time (UTC) | temp F | wind direction | speed MPH | gust MPH | rain 1hr in | rain 24hr in | rain mn in | humidity % | barometer mb |
| 20260505164041 | 82 | 211 | 10.0 | 22.0 | 0.00 | 0.00 | 0.00 | 34 | 1009.1 |
| 20260505163534 | 82 | 236 | 12.0 | 22.0 | 0.00 | 0.00 | 0.00 | 33 | 1009.2 |
| 20260505163030 | 82 | 192 | 9.0 | 22.0 | 0.00 | 0.00 | 0.00 | 35 | 1009.2 |
| 20260505162541 | 82 | 217 | 8.0 | 19.0 | 0.00 | 0.00 | 0.00 | 36 | 1009.1 |
| 20260505162041 | 81 | 252 | 6.0 | 18.0 | 0.00 | 0.00 | 0.00 | 36 | 1009.3 |
| 20260505161539 | 81 | 215 | 8.0 | 22.0 | 0.00 | 0.00 | 0.00 | 35 | 1009.5 |
| 20260505161039 | 81 | 227 | 9.0 | 22.0 | 0.00 | 0.00 | 0.00 | 36 | 1009.6 |
| 20260505160539 | 81 | 199 | 9.0 | 21.0 | 0.00 | 0.00 | 0.00 | 37 | 1009.7 |
| 20260505153047 | 79 | 212 | 9.0 | 20.0 | 0.00 | 0.00 | 0.00 | 39 | 1009.9 |
| 20260505152542 | 79 | 181 | 6.0 | 18.0 | 0.00 | 0.00 | 0.00 | 41 | 1009.8 |
| 20260505152102 | 79 | 195 | 9.0 | 18.0 | 0.00 | 0.00 | 0.00 | 41 | 1009.8 |
| 20260505151600 | 78 | 215 | 6.0 | 14.0 | 0.00 | 0.00 | 0.00 | 44 | 1009.7 |
| 20260505151035 | 77 | 181 | 6.0 | 19.0 | 0.00 | 0.00 | 0.00 | 43 | 1009.8 |
| 20260505150526 | 78 | 184 | 12.0 | 18.0 | 0.00 | 0.00 | 0.00 | 42 | 1009.9 |
| 20260505140545 | 74 | 209 | 10.0 | 17.0 | 0.00 | 0.00 | 0.00 | 47 | 1010.0 |
| 20260505140105 | 73 | 195 | 10.0 | 19.0 | 0.00 | 0.00 | 0.00 | 48 | 1010.1 |
| 20260505125028 | 67 | 157 | 11.0 | 17.0 | 0.00 | 0.00 | 0.00 | 57 | 1010.4 |
| 20260505124543 | 67 | 162 | 13.0 | 17.0 | 0.00 | 0.00 | 0.00 | 57 | 1010.5 |
| 20260505124041 | 66 | 188 | 12.0 | 16.0 | 0.00 | 0.00 | 0.00 | 58 | 1010.5 |
| 20260505123531 | 66 | 167 | 10.0 | 16.0 | 0.00 | 0.00 | 0.00 | 59 | 1010.5 |
| 20260505123026 | 65 | 169 | 12.0 | 18.0 | 0.00 | 0.00 | 0.00 | 59 | 1010.6 |
| 20260505122605 | 65 | 175 | 9.0 | 18.0 | 0.00 | 0.00 | 0.00 | 60 | 1010.5 |
| 20260505122102 | 64 | 168 | 11.0 | 14.0 | 0.00 | 0.00 | 0.00 | 60 | 1010.6 |
| 20260505121541 | 64 | 171 | 9.0 | 13.0 | 0.00 | 0.00 | 0.00 | 61 | 1010.7 |
| 20260505121040 | 64 | 163 | 10.0 | 13.0 | 0.00 | 0.00 | 0.00 | 61 | 1010.6 |
| 20260505120534 | 63 | 168 | 12.0 | 13.0 | 0.00 | 0.00 | 0.00 | 61 | 1010.7 |
| 20260505120029 | 63 | 148 | 7.0 | 14.0 | 0.00 | 0.00 | 0.00 | 62 | 1010.6 |
| 20260505115604 | 63 | 143 | 10.0 | 14.0 | 0.00 | 0.00 | 0.00 | 62 | 1010.5 |
| 20260505115104 | 63 | 140 | 9.0 | 14.0 | 0.00 | 0.00 | 0.00 | 62 | 1010.6 |
| 20260505114536 | 62 | 176 | 8.0 | 14.0 | 0.00 | 0.00 | 0.00 | 64 | 1010.6 |
| 20260505114033 | 62 | 161 | 10.0 | 14.0 | 0.00 | 0.00 | 0.00 | 64 | 1010.6 |
| 20260505113529 | 61 | 169 | 7.0 | 11.0 | 0.00 | 0.00 | 0.00 | 65 | 1010.5 |
| 20260505113026 | 61 | 166 | 6.0 | 11.0 | 0.00 | 0.00 | 0.00 | 65 | 1010.4 |
| 20260505112602 | 61 | 141 | 7.0 | 10.0 | 0.00 | 0.00 | 0.00 | 66 | 1010.4 |
| 20260505112037 | 61 | 136 | 7.0 | 10.0 | 0.00 | 0.00 | 0.00 | 66 | 1010.4 |
| 20260505111531 | 60 | 169 | 6.0 | 10.0 | 0.00 | 0.00 | 0.00 | 66 | 1010.4 |
| 20260505111027 | 60 | 163 | 8.0 | 10.0 | 0.00 | 0.00 | 0.00 | 66 | 1010.3 |
| 20260505110543 | 60 | 142 | 6.0 | 10.0 | 0.00 | 0.00 | 0.00 | 67 | 1010.2 |
| 20260505102043 | 60 | 160 | 4.0 | 5.0 | 0.00 | 0.00 | 0.00 | 67 | 1010.1 |
| 20260505101535 | 60 | 174 | 3.0 | 6.0 | 0.00 | 0.00 | 0.00 | 67 | 1010.0 |
| 20260505101053 | 60 | 174 | 3.0 | 7.0 | 0.00 | 0.00 | 0.00 | 67 | 1010.0 |
| 20260505100604 | 60 | 165 | 6.0 | 7.0 | 0.00 | 0.00 | 0.00 | 67 | 1010.0 |
| 20260505100036 | 60 | 177 | 5.0 | 7.0 | 0.00 | 0.00 | 0.00 | 67 | 1009.9 |
| 20260505095553 | 60 | 183 | 4.0 | 7.0 | 0.00 | 0.00 | 0.00 | 67 | 1010.0 |
| 20260505095026 | 60 | 196 | 3.0 | 7.0 | 0.00 | 0.00 | 0.00 | 66 | 1010.0 |
| 20260505094540 | 60 | 181 | 4.0 | 6.0 | 0.00 | 0.00 | 0.00 | 66 | 1009.9 |
| 20260505094041 | 60 | 168 | 5.0 | 7.0 | 0.00 | 0.00 | 0.00 | 66 | 1009.6 |
| 20260505093559 | 60 | 173 | 5.0 | 7.0 | 0.00 | 0.00 | 0.00 | 65 | 1009.6 |
| 20260505093039 | 60 | 169 | 5.0 | 10.0 | 0.00 | 0.00 | 0.00 | 65 | 1009.5 |
| 20260505092557 | 60 | 167 | 7.0 | 10.0 | 0.00 | 0.00 | 0.00 | 65 | 1009.5 |
| 20260505092032 | 60 | 172 | 7.0 | 9.0 | 0.00 | 0.00 | 0.00 | 65 | 1009.5 |
| 20260505091524 | 60 | 167 | 7.0 | 9.0 | 0.00 | 0.00 | 0.00 | 65 | 1009.5 |
| 20260505091043 | 61 | 163 | 4.0 | 7.0 | 0.00 | 0.00 | 0.00 | 65 | 1009.5 |
| 20260505090540 | 61 | 155 | 6.0 | 7.0 | 0.00 | 0.00 | 0.00 | 64 | 1009.5 |
| 20260505090035 | 61 | 173 | 5.0 | 7.0 | 0.00 | 0.00 | 0.00 | 64 | 1009.5 |
| 20260505085530 | 61 | 165 | 5.0 | 8.0 | 0.00 | 0.00 | 0.00 | 63 | 1009.5 |
| 20260505085025 | 61 | 169 | 4.0 | 8.0 | 0.00 | 0.00 | 0.00 | 63 | 1009.5 |
| 20260505084536 | 61 | 182 | 5.0 | 8.0 | 0.00 | 0.00 | 0.00 | 63 | 1009.5 |
| 20260505084032 | 62 | 177 | 4.0 | 10.0 | 0.00 | 0.00 | 0.00 | 62 | 1009.5 |
| 20260505083525 | 62 | 180 | 6.0 | 10.0 | 0.00 | 0.00 | 0.00 | 62 | 1009.5 |
| 20260505083043 | 62 | 177 | 7.0 | 11.0 | 0.00 | 0.00 | 0.00 | 62 | 1009.3 |
| 20260505082603 | 62 | 159 | 7.0 | 14.0 | 0.00 | 0.00 | 0.00 | 62 | 1009.3 |
| 20260505082036 | 62 | 170 | 9.0 | 13.0 | 0.00 | 0.00 | 0.00 | 62 | 1009.3 |
| 20260505081529 | 62 | 165 | 10.0 | 15.0 | 0.00 | 0.00 | 0.00 | 61 | 1009.2 |
| 20260505081047 | 62 | 177 | 9.0 | 14.0 | 0.00 | 0.00 | 0.00 | 61 | 1009.2 |
| 20260505080543 | 62 | 190 | 11.0 | 17.0 | 0.00 | 0.00 | 0.00 | 61 | 1009.2 |
| 20260505080040 | 62 | 159 | 12.0 | 17.0 | 0.00 | 0.00 | 0.00 | 61 | 1009.1 |
| 20260505075530 | 62 | 155 | 11.0 | 13.0 | 0.00 | 0.00 | 0.00 | 61 | 1009.2 |
| 20260505075048 | 62 | 182 | 9.0 | 11.0 | 0.00 | 0.00 | 0.00 | 62 | 1009.1 |
| 20260505074543 | 62 | 163 | 10.0 | 12.0 | 0.00 | 0.00 | 0.00 | 62 | 1009.0 |
| 20260505074038 | 62 | 171 | 8.0 | 11.0 | 0.00 | 0.00 | 0.00 | 63 | 1009.0 |
| 20260505073540 | 62 | 182 | 8.0 | 11.0 | 0.00 | 0.00 | 0.00 | 63 | 1008.9 |
| 20260505073041 | 61 | 173 | 7.0 | 11.0 | 0.00 | 0.00 | 0.00 | 63 | 1008.9 |
| 20260505072532 | 61 | 169 | 7.0 | 11.0 | 0.00 | 0.00 | 0.00 | 63 | 1008.9 |
| 20260505072027 | 61 | 167 | 7.0 | 10.0 | 0.00 | 0.00 | 0.00 | 64 | 1008.9 |
| 20260505071604 | 61 | 161 | 7.0 | 10.0 | 0.00 | 0.00 | 0.00 | 64 | 1008.9 |
| 20260505071043 | 61 | 167 | 7.0 | 9.0 | 0.00 | 0.00 | 0.00 | 64 | 1008.9 |
| 20260505070540 | 61 | 170 | 8.0 | 9.0 | 0.00 | 0.00 | 0.00 | 64 | 1008.8 |
| 20260505070043 | 61 | 149 | 7.0 | 9.0 | 0.00 | 0.00 | 0.00 | 65 | 1008.8 |
| 20260505065534 | 61 | 161 | 6.0 | 9.0 | 0.00 | 0.00 | 0.00 | 65 | 1008.8 |
| 20260505065028 | 61 | 155 | 6.0 | 9.0 | 0.00 | 0.00 | 0.00 | 65 | 1008.9 |
| 20260505064543 | 61 | 145 | 5.0 | 7.0 | 0.00 | 0.00 | 0.00 | 65 | 1008.9 |
| 20260505064041 | 62 | 173 | 4.0 | 6.0 | 0.00 | 0.00 | 0.00 | 65 | 1008.9 |
| 20260505063532 | 62 | 173 | 5.0 | 6.0 | 0.00 | 0.00 | 0.00 | 64 | 1009.1 |
| 20260505063026 | 62 | 172 | 6.0 | 8.0 | 0.00 | 0.00 | 0.00 | 64 | 1009.1 |
| 20260505062603 | 62 | 180 | 6.0 | 8.0 | 0.00 | 0.00 | 0.00 | 64 | 1009.2 |
| 20260505062044 | 62 | 179 | 7.0 | 9.0 | 0.00 | 0.00 | 0.00 | 63 | 1009.1 |
| 20260505061541 | 62 | 181 | 6.0 | 10.0 | 0.00 | 0.00 | 0.00 | 63 | 1009.2 |
| 20260505061036 | 63 | 146 | 6.0 | 10.0 | 0.00 | 0.00 | 0.00 | 63 | 1009.2 |
| 20260505060527 | 62 | 172 | 6.0 | 9.0 | 0.00 | 0.00 | 0.00 | 63 | 1009.2 |
| 20260505060025 | 63 | 148 | 6.0 | 9.0 | 0.00 | 0.00 | 0.00 | 63 | 1009.4 |
| 20260505055542 | 63 | 180 | 5.0 | 10.0 | 0.00 | 0.00 | 0.00 | 63 | 1009.3 |
| 20260505055038 | 63 | 161 | 7.0 | 10.0 | 0.00 | 0.00 | 0.00 | 63 | 1009.3 |
| 20260505054526 | 63 | 140 | 5.0 | 9.0 | 0.00 | 0.00 | 0.00 | 63 | 1009.2 |
| 20260505054045 | 63 | 139 | 6.0 | 10.0 | 0.00 | 0.00 | 0.00 | 63 | 1009.3 |
| 20260505053538 | 63 | 166 | 7.0 | 10.0 | 0.00 | 0.00 | 0.00 | 63 | 1009.2 |
| 20260505053056 | 63 | 151 | 6.0 | 9.0 | 0.00 | 0.00 | 0.00 | 62 | 1009.4 |
| 20260505052526 | 63 | 152 | 6.0 | 11.0 | 0.00 | 0.00 | 0.00 | 61 | 1009.4 |
| 20260505052041 | 63 | 169 | 6.0 | 15.0 | 0.00 | 0.00 | 0.00 | 61 | 1009.3 |
| 20260505051601 | 64 | 165 | 7.0 | 15.0 | 0.00 | 0.00 | 0.00 | 61 | 1009.4 |
| 20260505051031 | 64 | 153 | 10.0 | 15.0 | 0.00 | 0.00 | 0.00 | 61 | 1009.4 |
| 20260505050524 | 64 | 157 | 9.0 | 12.0 | 0.00 | 0.00 | 0.00 | 60 | 1009.3 |
| 20260505041543 | 65 | 169 | 8.0 | 10.0 | 0.00 | 0.00 | 0.00 | 57 | 1008.9 |
| 20260505041044 | 66 | 165 | 8.0 | 10.0 | 0.00 | 0.00 | 0.00 | 57 | 1009.1 |
| 20260505040540 | 66 | 165 | 7.0 | 11.0 | 0.00 | 0.00 | 0.00 | 56 | 1009.0 |
| 20260505040035 | 66 | 175 | 8.0 | 12.0 | 0.00 | 0.00 | 0.00 | 56 | 1008.8 |
| 20260505035531 | 66 | 174 | 9.0 | 12.0 | 0.00 | 0.00 | 0.00 | 55 | 1008.9 |
| 20260505035026 | 66 | 195 | 9.0 | 13.0 | 0.00 | 0.00 | 0.00 | 55 | 1009.0 |
| 20260505034538 | 66 | 173 | 10.0 | 15.0 | 0.00 | 0.00 | 0.00 | 55 | 1008.9 |
| 20260505034032 | 66 | 180 | 11.0 | 14.0 | 0.00 | 0.00 | 0.00 | 55 | 1008.8 |
| 20260505033524 | 66 | 185 | 8.0 | 13.0 | 0.00 | 0.00 | 0.00 | 55 | 1008.8 |
| 20260505033039 | 66 | 173 | 8.0 | 11.0 | 0.00 | 0.00 | 0.00 | 55 | 1008.9 |
| 20260505032554 | 66 | 178 | 8.0 | 12.0 | 0.00 | 0.00 | 0.00 | 55 | 1009.0 |
| 20260505032024 | 66 | 160 | 9.0 | 13.0 | 0.00 | 0.00 | 0.00 | 55 | 1009.1 |
| 20260505031542 | 66 | 178 | 9.0 | 13.0 | 0.00 | 0.00 | 0.00 | 55 | 1009.1 |
| 20260505031038 | 66 | 205 | 10.0 | 12.0 | 0.00 | 0.00 | 0.00 | 55 | 1009.1 |
| 20260505030531 | 66 | 185 | 8.0 | 11.0 | 0.00 | 0.00 | 0.00 | 54 | 1009.1 |
| 20260505030024 | 66 | 188 | 9.0 | 11.0 | 0.00 | 0.00 | 0.00 | 54 | 1009.1 |
| 20260505025543 | 66 | 178 | 7.0 | 12.0 | 0.00 | 0.00 | 0.00 | 55 | 1009.0 |
| 20260505025035 | 66 | 183 | 7.0 | 9.0 | 0.00 | 0.00 | 0.00 | 54 | 1008.8 |
| 20260505024526 | 66 | 167 | 7.0 | 10.0 | 0.00 | 0.00 | 0.00 | 54 | 1008.8 |
| 20260505024105 | 66 | 162 | 7.0 | 10.0 | 0.00 | 0.00 | 0.00 | 54 | 1008.7 |
| 20260505023601 | 66 | 170 | 7.0 | 10.0 | 0.00 | 0.00 | 0.00 | 53 | 1008.8 |
| 20260505023037 | 66 | 175 | 6.0 | 10.0 | 0.00 | 0.00 | 0.00 | 54 | 1008.8 |
| 20260505022530 | 66 | 188 | 7.0 | 10.0 | 0.00 | 0.00 | 0.00 | 53 | 1008.7 |
| 20260505022027 | 67 | 158 | 7.0 | 12.0 | 0.00 | 0.00 | 0.00 | 53 | 1008.6 |
| 20260505021535 | 67 | 165 | 9.0 | 12.0 | 0.00 | 0.00 | 0.00 | 53 | 1008.5 |
| 20260505021028 | 67 | 174 | 8.0 | 11.0 | 0.00 | 0.00 | 0.00 | 53 | 1008.6 |
| 20260505020524 | 67 | 153 | 8.0 | 11.0 | 0.00 | 0.00 | 0.00 | 52 | 1008.5 |
| 20260505020042 | 67 | 161 | 8.0 | 16.0 | 0.00 | 0.00 | 0.00 | 52 | 1008.4 |
| 20260505015601 | 67 | 166 | 10.0 | 16.0 | 0.00 | 0.00 | 0.00 | 52 | 1008.5 |
| 20260505015034 | 68 | 168 | 8.0 | 11.0 | 0.00 | 0.00 | 0.00 | 52 | 1008.5 |
| 20260505014524 | 68 | 182 | 8.0 | 11.0 | 0.00 | 0.00 | 0.00 | 52 | 1008.7 |
| 20260505014044 | 68 | 186 | 6.0 | 10.0 | 0.00 | 0.00 | 0.00 | 52 | 1008.8 |
| 20260505013541 | 68 | 187 | 7.0 | 14.0 | 0.00 | 0.00 | 0.00 | 51 | 1008.6 |
| 20260505013041 | 68 | 196 | 9.0 | 14.0 | 0.00 | 0.00 | 0.00 | 51 | 1008.6 |
| 20260505012532 | 68 | 182 | 10.0 | 15.0 | 0.00 | 0.00 | 0.00 | 51 | 1008.5 |
| 20260505012029 | 68 | 192 | 12.0 | 17.0 | 0.00 | 0.00 | 0.00 | 50 | 1008.5 |
| 20260505011543 | 68 | 205 | 15.0 | 19.0 | 0.00 | 0.00 | 0.00 | 49 | 1008.4 |
| 20260505011100 | 68 | 196 | 14.0 | 19.0 | 0.00 | 0.00 | 0.00 | 47 | 1008.4 |
| 20260505010555 | 68 | 175 | 10.0 | 13.0 | 0.00 | 0.00 | 0.00 | 46 | 1008.2 |
| 20260505010027 | 69 | 171 | 9.0 | 15.0 | 0.00 | 0.00 | 0.00 | 46 | 1007.9 |
| 20260505005543 | 69 | 150 | 10.0 | 15.0 | 0.00 | 0.00 | 0.00 | 46 | 1007.9 |
| 20260505005043 | 69 | 169 | 9.0 | 14.0 | 0.00 | 0.00 | 0.00 | 45 | 1007.9 |
| 20260505004601 | 69 | 148 | 8.0 | 14.0 | 0.00 | 0.00 | 0.00 | 45 | 1007.9 |
| 20260505004059 | 69 | 161 | 8.0 | 12.0 | 0.00 | 0.00 | 0.00 | 45 | 1007.8 |
| 20260505003532 | 69 | 140 | 9.0 | 14.0 | 0.00 | 0.00 | 0.00 | 45 | 1007.9 |
| 20260505003026 | 70 | 167 | 10.0 | 14.0 | 0.00 | 0.00 | 0.00 | 44 | 1007.8 |
| 20260505002538 | 70 | 175 | 8.0 | 17.0 | 0.00 | 0.00 | 0.00 | 44 | 1007.7 |
| 20260505002032 | 70 | 160 | 9.0 | 17.0 | 0.00 | 0.00 | 0.00 | 44 | 1007.6 |
| 20260505001525 | 70 | 171 | 10.0 | 15.0 | 0.00 | 0.00 | 0.00 | 43 | 1007.5 |
| 20260505001026 | 70 | 168 | 11.0 | 15.0 | 0.00 | 0.00 | 0.00 | 43 | 1007.6 |
| 20260505000541 | 70 | 163 | 12.0 | 14.0 | 0.00 | 0.00 | 0.00 | 43 | 1007.6 |
| 20260505000042 | 70 | 161 | 9.0 | 14.0 | 0.00 | 0.00 | 0.00 | 43 | 1007.6 |
| 20260504235529 | 71 | 167 | 10.0 | 14.0 | 0.00 | 0.00 | 0.00 | 43 | 1007.5 |
| 20260504235048 | 71 | 175 | 9.0 | 13.0 | 0.00 | 0.00 | 0.00 | 43 | 1007.5 |
| 20260504234544 | 71 | 155 | 8.0 | 14.0 | 0.00 | 0.00 | 0.00 | 43 | 1007.5 |
| 20260504234038 | 71 | 159 | 9.0 | 14.0 | 0.00 | 0.00 | 0.00 | 41 | 1007.5 |
| 20260504233533 | 72 | 144 | 8.0 | 12.0 | 0.00 | 0.00 | 0.00 | 42 | 1007.5 |
| 20260504233024 | 72 | 154 | 8.0 | 14.0 | 0.00 | 0.00 | 0.00 | 41 | 1007.4 |
| 20260504232542 | 72 | 163 | 10.0 | 14.0 | 0.00 | 0.00 | 0.00 | 41 | 1007.4 |
| 20260504232038 | 72 | 168 | 9.0 | 16.0 | 0.00 | 0.00 | 0.00 | 41 | 1007.4 |
| 20260504231530 | 73 | 148 | 11.0 | 14.0 | 0.00 | 0.00 | 0.00 | 41 | 1007.4 |
| 20260504231047 | 73 | 162 | 8.0 | 14.0 | 0.00 | 0.00 | 0.00 | 41 | 1007.4 |
| 20260504230543 | 73 | 156 | 9.0 | 12.0 | 0.00 | 0.00 | 0.00 | 40 | 1007.4 |
| 20260504230042 | 73 | 161 | 10.0 | 13.0 | 0.00 | 0.00 | 0.00 | 39 | 1007.4 |
| 20260504225536 | 73 | 186 | 10.0 | 17.0 | 0.00 | 0.00 | 0.00 | 39 | 1007.4 |
| 20260504225034 | 74 | 167 | 12.0 | 18.0 | 0.00 | 0.00 | 0.00 | 39 | 1007.4 |
| 20260504224524 | 74 | 167 | 13.0 | 18.0 | 0.00 | 0.00 | 0.00 | 38 | 1007.5 |
| 20260504224044 | 74 | 194 | 8.0 | 17.0 | 0.00 | 0.00 | 0.00 | 38 | 1007.5 |
| 20260504223537 | 74 | 181 | 9.0 | 17.0 | 0.00 | 0.00 | 0.00 | 37 | 1007.4 |
| 20260504223031 | 75 | 184 | 12.0 | 16.0 | 0.00 | 0.00 | 0.00 | 36 | 1007.4 |
| 20260504222527 | 75 | 180 | 12.0 | 16.0 | 0.00 | 0.00 | 0.00 | 37 | 1007.5 |
| 20260504222038 | 75 | 188 | 10.0 | 14.0 | 0.00 | 0.00 | 0.00 | 36 | 1007.4 |
| 20260504221539 | 75 | 180 | 11.0 | 16.0 | 0.00 | 0.00 | 0.00 | 36 | 1007.4 |
| 20260504221057 | 75 | 189 | 10.0 | 17.0 | 0.00 | 0.00 | 0.00 | 37 | 1007.5 |
| 20260504220553 | 75 | 161 | 9.0 | 16.0 | 0.00 | 0.00 | 0.00 | 37 | 1007.5 |
| 20260504220027 | 75 | 169 | 11.0 | 16.0 | 0.00 | 0.00 | 0.00 | 37 | 1007.5 |
| 20260504215541 | 75 | 180 | 8.0 | 16.0 | 0.00 | 0.00 | 0.00 | 37 | 1007.5 |
| 20260504215035 | 75 | 184 | 10.0 | 18.0 | 0.00 | 0.00 | 0.00 | 36 | 1007.6 |
| 20260504214524 | 75 | 166 | 14.0 | 20.0 | 0.00 | 0.00 | 0.00 | 36 | 1007.6 |
| 20260504214042 | 75 | 181 | 15.0 | 23.0 | 0.00 | 0.00 | 0.00 | 36 | 1007.5 |
| 20260504213600 | 76 | 180 | 14.0 | 23.0 | 0.00 | 0.00 | 0.00 | 35 | 1007.6 |
| 20260504213033 | 76 | 188 | 13.0 | 21.0 | 0.00 | 0.00 | 0.00 | 35 | 1007.5 |
| 20260504212550 | 77 | 175 | 17.0 | 21.0 | 0.00 | 0.00 | 0.00 | 34 | 1007.5 |
| 20260504212024 | 77 | 157 | 10.0 | 20.0 | 0.00 | 0.00 | 0.00 | 35 | 1007.5 |
| 20260504211603 | 77 | 196 | 16.0 | 20.0 | 0.00 | 0.00 | 0.00 | 34 | 1007.5 |
| 20260504211043 | 77 | 199 | 12.0 | 17.0 | 0.00 | 0.00 | 0.00 | 34 | 1007.5 |
| 20260504210543 | 77 | 186 | 12.0 | 16.0 | 0.00 | 0.00 | 0.00 | 34 | 1007.5 |
| 20260504210036 | 77 | 178 | 11.0 | 18.0 | 0.00 | 0.00 | 0.00 | 34 | 1007.4 |
| 20260504205528 | 77 | 182 | 13.0 | 18.0 | 0.00 | 0.00 | 0.00 | 34 | 1007.5 |
| 20260504205025 | 77 | 157 | 14.0 | 18.0 | 0.00 | 0.00 | 0.00 | 34 | 1007.6 |
| 20260504204559 | 77 | 188 | 12.0 | 24.0 | 0.00 | 0.00 | 0.00 | 34 | 1007.7 |
| 20260504204059 | 77 | 164 | 13.0 | 24.0 | 0.00 | 0.00 | 0.00 | 34 | 1007.8 |
| 20260504203530 | 77 | 149 | 12.0 | 23.0 | 0.00 | 0.00 | 0.00 | 34 | 1007.9 |
| 20260504203106 | 77 | 141 | 13.0 | 23.0 | 0.00 | 0.00 | 0.00 | 34 | 1007.9 |
| 20260504202538 | 77 | 180 | 11.0 | 18.0 | 0.00 | 0.00 | 0.00 | 35 | 1007.9 |
| 20260504202034 | 77 | 163 | 12.0 | 22.0 | 0.00 | 0.00 | 0.00 | 34 | 1007.9 |
| 20260504201526 | 76 | 148 | 17.0 | 23.0 | 0.00 | 0.00 | 0.00 | 34 | 1008.0 |
| 20260504201043 | 76 | 181 | 15.0 | 23.0 | 0.00 | 0.00 | 0.00 | 34 | 1008.1 |
| 20260504200533 | 77 | 160 | 14.0 | 20.0 | 0.00 | 0.00 | 0.00 | 33 | 1008.1 |
| 20260504200030 | 77 | 177 | 13.0 | 21.0 | 0.00 | 0.00 | 0.00 | 34 | 1008.3 |
| 20260504195529 | 77 | 165 | 13.0 | 18.0 | 0.00 | 0.00 | 0.00 | 33 | 1008.2 |
| 20260504195027 | 77 | 190 | 14.0 | 19.0 | 0.00 | 0.00 | 0.00 | 34 | 1008.4 |
| 20260504194604 | 77 | 171 | 14.0 | 21.0 | 0.00 | 0.00 | 0.00 | 34 | 1008.4 |
| 20260504194042 | 77 | 161 | 14.0 | 20.0 | 0.00 | 0.00 | 0.00 | 34 | 1008.5 |
| 20260504193543 | 77 | 160 | 10.0 | 20.0 | 0.00 | 0.00 | 0.00 | 35 | 1008.6 |
| 20260504193041 | 76 | 171 | 15.0 | 23.0 | 0.00 | 0.00 | 0.00 | 35 | 1008.7 |
| 20260504192541 | 77 | 183 | 13.0 | 23.0 | 0.00 | 0.00 | 0.00 | 34 | 1008.7 |
| 20260504192041 | 77 | 224 | 11.0 | 21.0 | 0.00 | 0.00 | 0.00 | 34 | 1009.0 |
| 20260504191542 | 77 | 168 | 15.0 | 21.0 | 0.00 | 0.00 | 0.00 | 33 | 1008.9 |
| 20260504191104 | 76 | 173 | 14.0 | 20.0 | 0.00 | 0.00 | 0.00 | 34 | 1009.0 |
| 20260504190537 | 76 | 182 | 11.0 | 17.0 | 0.00 | 0.00 | 0.00 | 35 | 1009.0 |
| 20260504190035 | 76 | 119 | 14.0 | 19.0 | 0.00 | 0.00 | 0.00 | 35 | 1009.2 |
| 20260504185527 | 76 | 163 | 15.0 | 22.0 | 0.00 | 0.00 | 0.00 | 34 | 1009.2 |
| 20260504185025 | 76 | 159 | 14.0 | 24.0 | 0.00 | 0.00 | 0.00 | 34 | 1009.4 |
| 20260504184542 | 76 | 144 | 10.0 | 16.0 | 0.00 | 0.00 | 0.00 | 36 | 1009.4 |
| 20260504184044 | 76 | 179 | 9.0 | 19.0 | 0.00 | 0.00 | 0.00 | 35 | 1009.4 |
| 20260504183537 | 75 | 219 | 5.0 | 19.0 | 0.00 | 0.00 | 0.00 | 37 | 1009.6 |
| 20260504183059 | 75 | 194 | 14.0 | 21.0 | 0.00 | 0.00 | 0.00 | 35 | 1009.7 |
| 20260504182541 | 75 | 188 | 12.0 | 21.0 | 0.00 | 0.00 | 0.00 | 35 | 1009.8 |
| 20260504182041 | 75 | 142 | 11.0 | 21.0 | 0.00 | 0.00 | 0.00 | 36 | 1009.9 |
| 20260504181539 | 74 | 142 | 11.0 | 20.0 | 0.00 | 0.00 | 0.00 | 34 | 1009.9 |
| 20260504181040 | 75 | 180 | 14.0 | 20.0 | 0.00 | 0.00 | 0.00 | 36 | 1010.1 |
| 20260504180536 | 75 | 202 | 10.0 | 17.0 | 0.00 | 0.00 | 0.00 | 36 | 1010.1 |
| 20260504180038 | 74 | 139 | 13.0 | 19.0 | 0.00 | 0.00 | 0.00 | 35 | 1010.1 |
| 20260504175533 | 74 | 160 | 15.0 | 19.0 | 0.00 | 0.00 | 0.00 | 36 | 1010.2 |
| 20260504175026 | 75 | 222 | 9.0 | 19.0 | 0.00 | 0.00 | 0.00 | 34 | 1010.3 |
| 20260504174604 | 74 | 205 | 7.0 | 14.0 | 0.00 | 0.00 | 0.00 | 35 | 1010.3 |
| 20260504174036 | 74 | 215 | 8.0 | 13.0 | 0.00 | 0.00 | 0.00 | 37 | 1010.4 |
| 20260504173531 | 73 | 174 | 8.0 | 17.0 | 0.00 | 0.00 | 0.00 | 36 | 1010.4 |
| 20260504173025 | 73 | 234 | 10.0 | 17.0 | 0.00 | 0.00 | 0.00 | 38 | 1010.6 |
| 20260504172604 | 73 | 194 | 10.0 | 17.0 | 0.00 | 0.00 | 0.00 | 36 | 1010.7 |
| 20260504172043 | 73 | 190 | 12.0 | 17.0 | 0.00 | 0.00 | 0.00 | 36 | 1010.8 |
| 20260504171541 | 73 | 178 | 10.0 | 17.0 | 0.00 | 0.00 | 0.00 | 37 | 1010.7 |
| 20260504171037 | 72 | 260 | 6.0 | 13.0 | 0.00 | 0.00 | 0.00 | 38 | 1010.8 |
| 20260504170531 | 72 | 211 | 9.0 | 13.0 | 0.00 | 0.00 | 0.00 | 38 | 1010.9 |